| time (UTC) | temp F | wind direction | speed knots | gust knots | rain 1hr in | rain 24hr in | rain mn in | humidity % | barometer mb |
| 20260904230055 | 56 | 180 | 0.0 | 0.0 | 0.00 | 0.04 | 0.00 | 82 | 1023.4 |
| 20260904225543 | 55 | 180 | 0.9 | 0.9 | 0.00 | 0.04 | 0.04 | 83 | 1023.3 |
| 20260904225030 | 55 | 207 | 0.0 | 0.0 | 0.00 | 0.04 | 0.04 | 83 | 1023.3 |
| 20260904224518 | 55 | 204 | 0.9 | 0.9 | 0.00 | 0.04 | 0.04 | 82 | 1023.2 |
| 20260904224006 | 56 | 220 | 0.0 | 0.0 | 0.00 | 0.04 | 0.04 | 82 | 1023.3 |
| 20260904223453 | 56 | 222 | 0.0 | 0.0 | 0.00 | 0.04 | 0.04 | 82 | 1023.2 |
| 20260904222941 | 56 | 197 | 1.7 | 1.7 | 0.00 | 0.04 | 0.04 | 82 | 1023.3 |
| 20260904222428 | 56 | 203 | 0.0 | 0.0 | 0.00 | 0.04 | 0.04 | 82 | 1023.2 |
| 20260904221916 | 56 | 203 | 0.0 | 0.0 | 0.00 | 0.04 | 0.04 | 81 | 1023.2 |
| 20260904221403 | 56 | 203 | 0.0 | 0.0 | 0.00 | 0.04 | 0.04 | 81 | 1023.2 |
| 20260904220851 | 57 | 216 | 0.0 | 0.0 | 0.00 | 0.04 | 0.04 | 80 | 1023.1 |
| 20260904220338 | 57 | 217 | 0.0 | 0.0 | 0.00 | 0.04 | 0.04 | 80 | 1023.1 |
| 20260904215826 | 57 | 192 | 0.9 | 0.9 | 0.00 | 0.04 | 0.04 | 80 | 1023.1 |
| 20260904215313 | 57 | 184 | 1.7 | 1.7 | 0.00 | 0.04 | 0.04 | 79 | 1023.1 |
| 20260904214801 | 58 | 170 | 0.0 | 0.0 | 0.00 | 0.04 | 0.04 | 78 | 1023.0 |
| 20260904214248 | 58 | 170 | 0.0 | 0.0 | 0.00 | 0.04 | 0.04 | 77 | 1023.1 |
| 20260904213736 | 58 | 44 | 1.7 | 1.7 | 0.00 | 0.04 | 0.04 | 77 | 1022.9 |
| 20260904213223 | 58 | 42 | 0.0 | 0.0 | 0.00 | 0.04 | 0.04 | 77 | 1022.9 |
| 20260904212711 | 58 | 36 | 0.9 | 0.9 | 0.00 | 0.04 | 0.04 | 77 | 1022.8 |
| 20260904212158 | 58 | 107 | 0.0 | 0.0 | 0.00 | 0.04 | 0.04 | 77 | 1022.8 |
| 20260904211646 | 58 | 204 | 0.0 | 0.0 | 0.00 | 0.04 | 0.04 | 77 | 1022.9 |
| 20260904211133 | 58 | 176 | 0.9 | 0.9 | 0.00 | 0.04 | 0.04 | 77 | 1022.7 |
| 20260904210621 | 58 | 175 | 0.0 | 0.0 | 0.00 | 0.04 | 0.04 | 76 | 1022.6 |
| 20260904210108 | 58 | 197 | 0.0 | 0.0 | 0.00 | 0.04 | 0.04 | 77 | 1022.6 |
| 20260904205556 | 59 | 198 | 1.7 | 1.7 | 0.00 | 0.04 | 0.04 | 76 | 1022.6 |
| 20260904205043 | 59 | 158 | 0.0 | 0.0 | 0.00 | 0.04 | 0.04 | 76 | 1022.4 |
| 20260904204531 | 59 | 164 | 0.0 | 0.0 | 0.00 | 0.04 | 0.04 | 77 | 1022.5 |
| 20260904204018 | 59 | 79 | 0.9 | 0.9 | 0.00 | 0.04 | 0.04 | 76 | 1022.5 |
| 20260904203506 | 59 | 50 | 0.9 | 0.9 | 0.00 | 0.04 | 0.04 | 76 | 1022.5 |
| 20260904202953 | 59 | 120 | 0.9 | 0.9 | 0.00 | 0.04 | 0.04 | 76 | 1022.4 |
| 20260904202441 | 59 | 44 | 1.7 | 1.7 | 0.00 | 0.04 | 0.04 | 76 | 1022.4 |
| 20260904201928 | 59 | 36 | 0.9 | 0.9 | 0.00 | 0.04 | 0.04 | 76 | 1022.5 |
| 20260904201416 | 59 | 60 | 0.0 | 0.0 | 0.00 | 0.04 | 0.04 | 76 | 1022.5 |
| 20260904200903 | 59 | 54 | 0.0 | 0.0 | 0.00 | 0.04 | 0.04 | 76 | 1022.4 |
| 20260904200350 | 59 | 40 | 0.9 | 0.9 | 0.00 | 0.04 | 0.04 | 76 | 1022.3 |
| 20260904195838 | 59 | 56 | 0.9 | 0.9 | 0.00 | 0.04 | 0.04 | 76 | 1022.3 |
| 20260904195325 | 59 | 306 | 0.0 | 0.0 | 0.00 | 0.04 | 0.04 | 76 | 1022.4 |
| 20260904194813 | 59 | 36 | 0.0 | 0.0 | 0.00 | 0.04 | 0.04 | 76 | 1022.4 |
| 20260904194300 | 59 | 30 | 0.9 | 0.9 | 0.00 | 0.04 | 0.04 | 76 | 1022.2 |
| 20260904193748 | 59 | 24 | 0.0 | 0.0 | 0.00 | 0.04 | 0.04 | 75 | 1022.1 |
| 20260904193235 | 59 | 24 | 0.0 | 0.0 | 0.00 | 0.04 | 0.04 | 75 | 1022.1 |
| 20260904192723 | 60 | 40 | 0.0 | 0.0 | 0.00 | 0.04 | 0.04 | 74 | 1022.0 |
| 20260904192210 | 60 | 40 | 0.0 | 0.0 | 0.00 | 0.04 | 0.04 | 73 | 1022.0 |
| 20260904191658 | 60 | 54 | 0.0 | 0.0 | 0.00 | 0.04 | 0.04 | 73 | 1022.0 |
| 20260904191145 | 60 | 30 | 0.0 | 0.0 | 0.00 | 0.04 | 0.04 | 72 | 1022.0 |
| 20260904190633 | 61 | 147 | 0.0 | 0.0 | 0.00 | 0.04 | 0.04 | 72 | 1021.8 |
| 20260904190120 | 61 | 115 | 0.9 | 0.9 | 0.00 | 0.04 | 0.04 | 71 | 1021.9 |
| 20260904185608 | 61 | 18 | 1.7 | 1.7 | 0.00 | 0.04 | 0.04 | 71 | 1021.8 |
| 20260904185055 | 61 | 54 | 1.7 | 1.7 | 0.00 | 0.04 | 0.04 | 70 | 1021.8 |
| 20260904184543 | 62 | 30 | 1.7 | 1.7 | 0.00 | 0.04 | 0.04 | 70 | 1021.7 |
| 20260904184030 | 62 | 36 | 1.7 | 1.7 | 0.00 | 0.04 | 0.04 | 70 | 1021.7 |
| 20260904183518 | 62 | 0 | 4.3 | 4.3 | 0.00 | 0.04 | 0.04 | 70 | 1021.7 |
| 20260904183005 | 62 | 42 | 3.5 | 3.5 | 0.00 | 0.04 | 0.04 | 70 | 1021.6 |
| 20260904182453 | 62 | 24 | 3.5 | 4.3 | 0.00 | 0.04 | 0.04 | 70 | 1021.6 |
| 20260904181940 | 62 | 120 | 3.5 | 3.5 | 0.00 | 0.04 | 0.04 | 69 | 1021.7 |
| 20260904181428 | 63 | 30 | 3.5 | 3.5 | 0.00 | 0.04 | 0.04 | 69 | 1021.6 |
| 20260904180915 | 63 | 30 | 3.5 | 3.5 | 0.00 | 0.04 | 0.04 | 69 | 1021.5 |
| 20260904180402 | 63 | 24 | 1.7 | 1.7 | 0.00 | 0.04 | 0.04 | 68 | 1021.4 |
| 20260904175850 | 63 | 42 | 1.7 | 1.7 | 0.00 | 0.04 | 0.04 | 67 | 1021.4 |
| 20260904175337 | 63 | 30 | 1.7 | 1.7 | 0.00 | 0.04 | 0.04 | 67 | 1021.2 |
| 20260904174825 | 63 | 29 | 0.9 | 0.9 | 0.00 | 0.04 | 0.04 | 67 | 1021.2 |
| 20260904174312 | 63 | 24 | 1.7 | 1.7 | 0.00 | 0.04 | 0.04 | 66 | 1021.2 |
| 20260904173800 | 63 | 156 | 1.7 | 1.7 | 0.00 | 0.04 | 0.04 | 66 | 1021.3 |
| 20260904173247 | 63 | 35 | 1.7 | 1.7 | 0.00 | 0.04 | 0.04 | 66 | 1021.2 |
| 20260904172735 | 63 | 150 | 0.9 | 0.9 | 0.00 | 0.04 | 0.04 | 65 | 1021.2 |
| 20260904172222 | 63 | 18 | 1.7 | 1.7 | 0.00 | 0.04 | 0.04 | 66 | 1021.1 |
| 20260904171710 | 63 | 6 | 3.5 | 3.5 | 0.00 | 0.04 | 0.04 | 65 | 1021.2 |
| 20260904171157 | 63 | 49 | 1.7 | 1.7 | 0.00 | 0.04 | 0.04 | 64 | 1021.0 |
| 20260904170645 | 63 | 99 | 1.7 | 1.7 | 0.00 | 0.04 | 0.04 | 64 | 1020.9 |
| 20260904170132 | 64 | 12 | 1.7 | 1.7 | 0.00 | 0.04 | 0.04 | 64 | 1021.2 |
| 20260904165620 | 64 | 42 | 1.7 | 1.7 | 0.00 | 0.04 | 0.04 | 64 | 1021.1 |
| 20260904165107 | 64 | 46 | 1.7 | 1.7 | 0.00 | 0.04 | 0.04 | 64 | 1021.0 |
| 20260904164556 | 64 | 18 | 2.6 | 2.6 | 0.00 | 0.04 | 0.04 | 63 | 1020.9 |
| 20260904164042 | 64 | 0 | 1.7 | 1.7 | 0.00 | 0.04 | 0.04 | 63 | 1020.8 |
| 20260904163530 | 64 | 42 | 1.7 | 1.7 | 0.00 | 0.04 | 0.04 | 62 | 1020.8 |
| 20260904163017 | 64 | 22 | 1.7 | 1.7 | 0.00 | 0.04 | 0.04 | 62 | 1020.6 |
| 20260904162505 | 64 | 66 | 0.0 | 0.0 | 0.00 | 0.04 | 0.04 | 62 | 1020.7 |
| 20260904161952 | 64 | 12 | 1.7 | 1.7 | 0.00 | 0.04 | 0.04 | 62 | 1020.8 |
| 20260904161440 | 64 | 57 | 5.2 | 5.2 | 0.00 | 0.04 | 0.04 | 62 | 1020.7 |
| 20260904160927 | 64 | 17 | 3.5 | 3.5 | 0.00 | 0.04 | 0.04 | 62 | 1020.7 |
| 20260904160415 | 64 | 55 | 0.0 | 0.0 | 0.00 | 0.04 | 0.04 | 63 | 1020.6 |
| 20260904155902 | 64 | 18 | 1.7 | 1.7 | 0.00 | 0.04 | 0.04 | 63 | 1020.7 |
| 20260904155350 | 64 | 348 | 1.7 | 1.7 | 0.00 | 0.04 | 0.04 | 62 | 1020.6 |
| 20260904154837 | 65 | 22 | 3.5 | 3.5 | 0.00 | 0.04 | 0.04 | 62 | 1020.7 |
| 20260904154325 | 65 | 6 | 1.7 | 1.7 | 0.00 | 0.04 | 0.04 | 62 | 1020.6 |
| 20260904153812 | 65 | 348 | 1.7 | 1.7 | 0.00 | 0.04 | 0.04 | 62 | 1020.5 |
| 20260904153300 | 65 | 38 | 3.5 | 3.5 | 0.00 | 0.04 | 0.04 | 63 | 1020.5 |
| 20260904152748 | 65 | 28 | 5.2 | 5.2 | 0.00 | 0.04 | 0.04 | 62 | 1020.6 |
| 20260904152235 | 65 | 350 | 4.3 | 5.2 | 0.00 | 0.04 | 0.04 | 62 | 1020.3 |
| 20260904151722 | 65 | 40 | 4.3 | 4.3 | 0.00 | 0.04 | 0.04 | 61 | 1020.4 |
| 20260904151210 | 65 | 46 | 3.5 | 3.5 | 0.00 | 0.04 | 0.04 | 61 | 1020.4 |
| 20260904150659 | 65 | 37 | 2.6 | 2.6 | 0.00 | 0.04 | 0.04 | 60 | 1020.5 |
| 20260904150145 | 65 | 29 | 4.3 | 4.3 | 0.00 | 0.04 | 0.04 | 60 | 1020.4 |
| 20260904145633 | 66 | 5 | 1.7 | 1.7 | 0.00 | 0.04 | 0.04 | 60 | 1020.2 |
| 20260904145120 | 66 | 30 | 0.0 | 0.0 | 0.00 | 0.04 | 0.04 | 60 | 1020.2 |
| 20260904144607 | 66 | 24 | 1.7 | 1.7 | 0.00 | 0.04 | 0.04 | 59 | 1020.2 |
| 20260904144055 | 66 | 38 | 3.5 | 3.5 | 0.00 | 0.04 | 0.04 | 58 | 1020.2 |
| 20260904143542 | 66 | 21 | 3.5 | 3.5 | 0.00 | 0.04 | 0.04 | 58 | 1020.1 |
| 20260904143030 | 66 | 42 | 2.6 | 2.6 | 0.00 | 0.04 | 0.04 | 58 | 1019.9 |
| 20260904142517 | 66 | 350 | 1.7 | 1.7 | 0.00 | 0.04 | 0.04 | 58 | 1020.0 |
| 20260904142005 | 66 | 6 | 7.0 | 7.0 | 0.00 | 0.04 | 0.04 | 58 | 1020.1 |
| 20260904141452 | 66 | 24 | 5.2 | 5.2 | 0.00 | 0.04 | 0.04 | 59 | 1020.0 |
| 20260904140939 | 66 | 18 | 2.6 | 2.6 | 0.00 | 0.04 | 0.04 | 59 | 1019.9 |
| 20260904140427 | 66 | 37 | 4.3 | 5.2 | 0.00 | 0.04 | 0.04 | 60 | 1019.8 |
| 20260904135914 | 66 | 359 | 1.7 | 1.7 | 0.00 | 0.04 | 0.04 | 63 | 1019.7 |
| 20260904135403 | 65 | 37 | 3.5 | 3.5 | 0.00 | 0.04 | 0.04 | 64 | 1019.7 |
| 20260904134849 | 65 | 354 | 2.6 | 2.6 | 0.00 | 0.04 | 0.04 | 64 | 1019.7 |
| 20260904134337 | 66 | 322 | 1.7 | 1.7 | 0.00 | 0.04 | 0.04 | 64 | 1019.7 |
| 20260904133824 | 66 | 10 | 5.2 | 6.1 | 0.00 | 0.04 | 0.04 | 64 | 1019.6 |
| 20260904133312 | 66 | 66 | 3.5 | 4.3 | 0.00 | 0.04 | 0.04 | 61 | 1019.7 |
| 20260904132759 | 66 | 28 | 3.5 | 3.5 | 0.00 | 0.04 | 0.04 | 60 | 1019.6 |
| 20260904132247 | 66 | 358 | 5.2 | 6.1 | 0.00 | 0.04 | 0.04 | 62 | 1019.6 |
| 20260904131734 | 65 | 30 | 3.5 | 3.5 | 0.00 | 0.04 | 0.04 | 63 | 1019.5 |
| 20260904131222 | 65 | 24 | 3.5 | 3.5 | 0.00 | 0.04 | 0.04 | 64 | 1019.6 |
| 20260904130709 | 65 | 6 | 1.7 | 1.7 | 0.00 | 0.04 | 0.04 | 64 | 1019.4 |
| 20260904130156 | 65 | 354 | 6.1 | 7.0 | 0.00 | 0.04 | 0.04 | 63 | 1019.4 |
| 20260904125644 | 65 | 38 | 3.5 | 4.3 | 0.00 | 0.04 | 0.04 | 63 | 1019.4 |
| 20260904125131 | 65 | 336 | 3.5 | 3.5 | 0.00 | 0.04 | 0.04 | 65 | 1019.3 |
| 20260904124619 | 65 | 348 | 3.5 | 4.3 | 0.00 | 0.04 | 0.04 | 65 | 1019.2 |
| 20260904123041 | 65 | 15 | 3.5 | 4.3 | 0.00 | 0.04 | 0.04 | 63 | 1019.1 |
| 20260904120951 | 65 | 324 | 2.6 | 2.6 | 0.00 | 0.04 | 0.04 | 68 | 1019.0 |
| 20260904120438 | 66 | 10 | 1.7 | 1.7 | 0.00 | 0.04 | 0.04 | 67 | 1018.9 |
| 20260904115926 | 65 | 36 | 3.5 | 3.5 | 0.00 | 0.04 | 0.04 | 66 | 1019.0 |
| 20260904115413 | 65 | 15 | 5.2 | 5.2 | 0.00 | 0.04 | 0.04 | 67 | 1018.9 |
| 20260904114901 | 65 | 24 | 4.3 | 5.2 | 0.00 | 0.04 | 0.04 | 69 | 1018.7 |
| 20260904114348 | 65 | 4 | 3.5 | 3.5 | 0.00 | 0.04 | 0.04 | 68 | 1018.7 |
| 20260904113836 | 65 | 344 | 3.5 | 3.5 | 0.00 | 0.04 | 0.04 | 69 | 1018.8 |
| 20260904113323 | 65 | 24 | 4.3 | 5.2 | 0.00 | 0.04 | 0.04 | 70 | 1018.7 |
| 20260904112811 | 65 | 32 | 3.5 | 3.5 | 0.00 | 0.04 | 0.04 | 71 | 1018.5 |
| 20260904104118 | 66 | 29 | 1.7 | 1.7 | 0.00 | 0.04 | 0.04 | 70 | 1018.0 |
| 20260904103052 | 65 | 29 | 1.7 | 1.7 | 0.00 | 0.04 | 0.04 | 73 | 1017.7 |
| 20260904102540 | 65 | 18 | 3.5 | 3.5 | 0.00 | 0.04 | 0.04 | 74 | 1017.8 |
| 20260904102027 | 65 | 36 | 1.7 | 1.7 | 0.00 | 0.04 | 0.04 | 74 | 1017.7 |
| 20260904101515 | 65 | 22 | 3.5 | 3.5 | 0.00 | 0.04 | 0.04 | 75 | 1017.8 |
| 20260904101003 | 65 | 17 | 2.6 | 2.6 | 0.00 | 0.04 | 0.04 | 75 | 1017.8 |
| 20260904100450 | 65 | 21 | 3.5 | 3.5 | 0.00 | 0.04 | 0.04 | 74 | 1017.5 |
| 20260904095937 | 65 | 22 | 4.3 | 5.2 | 0.00 | 0.04 | 0.04 | 75 | 1017.7 |
| 20260904095425 | 65 | 354 | 3.5 | 3.5 | 0.00 | 0.04 | 0.04 | 74 | 1017.6 |
| 20260904094912 | 66 | 18 | 3.5 | 4.3 | 0.00 | 0.04 | 0.04 | 75 | 1017.5 |
| 20260904094400 | 66 | 0 | 1.7 | 1.7 | 0.00 | 0.04 | 0.04 | 75 | 1017.5 |
| 20260904093847 | 66 | 11 | 1.7 | 1.7 | 0.00 | 0.04 | 0.04 | 75 | 1017.7 |
| 20260904093335 | 65 | 348 | 3.5 | 3.5 | 0.00 | 0.04 | 0.04 | 74 | 1017.5 |
| 20260904092823 | 65 | 27 | 1.7 | 1.7 | 0.00 | 0.04 | 0.04 | 75 | 1017.5 |
| 20260904092310 | 65 | 16 | 0.9 | 0.9 | 0.00 | 0.04 | 0.04 | 75 | 1017.4 |
| 20260904091758 | 65 | 22 | 3.5 | 3.5 | 0.00 | 0.04 | 0.04 | 75 | 1017.2 |
| 20260904091245 | 65 | 5 | 3.5 | 3.5 | 0.00 | 0.04 | 0.04 | 75 | 1017.2 |
| 20260904090733 | 65 | 48 | 1.7 | 1.7 | 0.00 | 0.04 | 0.04 | 77 | 1017.1 |
| 20260904090220 | 65 | 5 | 3.5 | 3.5 | 0.00 | 0.04 | 0.04 | 77 | 1016.9 |
| 20260904085707 | 65 | 33 | 3.5 | 3.5 | 0.00 | 0.04 | 0.04 | 77 | 1016.9 |
| 20260904085155 | 65 | 348 | 1.7 | 1.7 | 0.00 | 0.04 | 0.04 | 78 | 1016.8 |
| 20260904084643 | 65 | 21 | 1.7 | 1.7 | 0.00 | 0.04 | 0.04 | 78 | 1016.7 |
| 20260904082553 | 64 | 4 | 2.6 | 2.6 | 0.00 | 0.04 | 0.04 | 85 | 1016.5 |
| 20260904082040 | 64 | 17 | 0.9 | 0.9 | 0.00 | 0.04 | 0.04 | 85 | 1016.5 |
| 20260904081527 | 64 | 18 | 0.9 | 0.9 | 0.00 | 0.04 | 0.04 | 85 | 1016.6 |
| 20260904081015 | 63 | 42 | 3.5 | 3.5 | 0.00 | 0.04 | 0.04 | 86 | 1016.5 |
| 20260904080502 | 63 | 22 | 1.7 | 1.7 | 0.00 | 0.04 | 0.04 | 86 | 1016.4 |
| 20260904075950 | 63 | 359 | 1.7 | 1.7 | 0.00 | 0.04 | 0.04 | 87 | 1016.5 |
| 20260904075437 | 63 | 18 | 1.7 | 1.7 | 0.00 | 0.04 | 0.04 | 89 | 1016.2 |
| 20260904074925 | 63 | 36 | 1.7 | 1.7 | 0.00 | 0.04 | 0.04 | 90 | 1016.3 |
| 20260904074413 | 63 | 36 | 0.9 | 0.9 | 0.00 | 0.04 | 0.04 | 91 | 1016.2 |
| 20260904073900 | 63 | 18 | 0.0 | 0.0 | 0.00 | 0.04 | 0.04 | 91 | 1016.2 |
| 20260904073347 | 63 | 34 | 1.7 | 1.7 | 0.00 | 0.04 | 0.04 | 91 | 1016.2 |
| 20260904072835 | 63 | 24 | 0.0 | 0.0 | 0.00 | 0.04 | 0.04 | 91 | 1016.1 |
| 20260904072322 | 63 | 354 | 0.9 | 0.9 | 0.00 | 0.04 | 0.04 | 91 | 1016.2 |
| 20260904071810 | 63 | 21 | 0.0 | 0.0 | 0.00 | 0.04 | 0.04 | 91 | 1016.3 |
| 20260904071257 | 63 | 22 | 0.9 | 0.9 | 0.00 | 0.04 | 0.04 | 90 | 1016.0 |
| 20260904070745 | 63 | 40 | 1.7 | 1.7 | 0.00 | 0.04 | 0.04 | 91 | 1016.0 |
| 20260904065207 | 62 | 308 | 1.7 | 1.7 | 0.00 | 0.04 | 0.04 | 91 | 1015.8 |
| 20260904064655 | 62 | 48 | 0.9 | 0.9 | 0.00 | 0.04 | 0.04 | 92 | 1015.7 |
| 20260904064142 | 62 | 15 | 0.0 | 0.0 | 0.01 | 0.04 | 0.04 | 92 | 1015.7 |
| 20260904063630 | 62 | 46 | 3.5 | 3.5 | 0.03 | 0.04 | 0.04 | 92 | 1015.5 |
| 20260904063117 | 62 | 24 | 1.7 | 1.7 | 0.04 | 0.04 | 0.04 | 91 | 1015.7 |
| 20260904062605 | 63 | 354 | 1.7 | 1.7 | 0.04 | 0.04 | 0.04 | 91 | 1015.6 |
| 20260904062052 | 63 | 48 | 1.7 | 1.7 | 0.04 | 0.04 | 0.04 | 91 | 1015.5 |
| 20260904061540 | 63 | 12 | 3.5 | 3.5 | 0.04 | 0.04 | 0.04 | 91 | 1015.4 |
| 20260904061027 | 63 | 72 | 3.5 | 3.5 | 0.04 | 0.04 | 0.04 | 91 | 1015.2 |
| 20260904060515 | 63 | 24 | 1.7 | 1.7 | 0.04 | 0.04 | 0.04 | 91 | 1015.1 |
| 20260904060002 | 62 | 48 | 1.7 | 1.7 | 0.04 | 0.04 | 0.04 | 91 | 1015.0 |
| 20260904055450 | 62 | 354 | 3.5 | 3.5 | 0.04 | 0.04 | 0.04 | 92 | 1015.0 |
| 20260904054937 | 62 | 0 | 2.6 | 2.6 | 0.04 | 0.04 | 0.04 | 93 | 1015.0 |
| 20260904054425 | 62 | 18 | 3.5 | 3.5 | 0.04 | 0.04 | 0.04 | 93 | 1015.1 |
| 20260904053912 | 62 | 78 | 3.5 | 4.3 | 0.03 | 0.03 | 0.03 | 92 | 1015.0 |
| 20260904053400 | 63 | 12 | 3.5 | 3.5 | 0.01 | 0.01 | 0.01 | 91 | 1014.9 |
| 20260904052847 | 64 | 348 | 3.5 | 3.5 | 0.00 | 0.00 | 0.00 | 90 | 1014.7 |
| 20260904052335 | 66 | 339 | 3.5 | 3.5 | 0.00 | 0.00 | 0.00 | 90 | 1014.6 |
| 20260904051822 | 67 | 36 | 1.7 | 1.7 | 0.00 | 0.00 | 0.00 | 91 | 1014.3 |
| 20260904051310 | 67 | 159 | 1.7 | 1.7 | 0.00 | 0.00 | 0.00 | 90 | 1014.1 |
| 20260904050757 | 67 | 90 | 4.3 | 4.3 | 0.00 | 0.00 | 0.00 | 90 | 1014.2 |
| 20260904050245 | 67 | 249 | 4.3 | 4.3 | 0.00 | 0.00 | 0.00 | 89 | 1014.1 |
| 20260904045732 | 67 | 197 | 5.2 | 5.2 | 0.00 | 0.00 | 0.00 | 89 | 1014.0 |
| 20260904045220 | 67 | 165 | 3.5 | 3.5 | 0.00 | 0.00 | 0.00 | 88 | 1014.0 |
| 20260904044707 | 67 | 65 | 1.7 | 1.7 | 0.00 | 0.00 | 0.00 | 88 | 1014.0 |
| 20260904044154 | 68 | 234 | 1.7 | 1.7 | 0.00 | 0.00 | 0.00 | 87 | 1014.1 |
| 20260904043642 | 68 | 129 | 5.2 | 6.1 | 0.00 | 0.00 | 0.00 | 87 | 1014.1 |
| 20260904043129 | 67 | 132 | 5.2 | 5.2 | 0.00 | 0.00 | 0.00 | 87 | 1014.0 |
| 20260904042617 | 67 | 210 | 0.9 | 0.9 | 0.00 | 0.00 | 0.00 | 88 | 1014.1 |
| 20260904042104 | 67 | 217 | 3.5 | 3.5 | 0.00 | 0.00 | 0.00 | 88 | 1014.0 |
| 20260904041552 | 67 | 204 | 0.9 | 0.9 | 0.00 | 0.00 | 0.00 | 89 | 1014.2 |
| 20260904041040 | 67 | 223 | 0.0 | 0.0 | 0.00 | 0.00 | 0.00 | 88 | 1014.1 |
| 20260904040527 | 68 | 178 | 1.7 | 1.7 | 0.00 | 0.00 | 0.00 | 87 | 1014.2 |
| 20260904040014 | 68 | 252 | 4.3 | 5.2 | 0.00 | 0.00 | 0.00 | 86 | 1014.3 |
| 20260904035502 | 68 | 195 | 4.3 | 4.3 | 0.00 | 0.00 | 0.00 | 85 | 1014.3 |
| 20260904034950 | 68 | 36 | 2.6 | 2.6 | 0.00 | 0.00 | 0.00 | 85 | 1014.4 |
| 20260904034437 | 68 | 235 | 4.3 | 4.3 | 0.00 | 0.00 | 0.00 | 85 | 1014.1 |
| 20260904033924 | 68 | 132 | 1.7 | 1.7 | 0.00 | 0.00 | 0.00 | 85 | 1014.0 |
| 20260904033412 | 68 | 219 | 1.7 | 1.7 | 0.00 | 0.00 | 0.00 | 85 | 1014.2 |
| 20260904032859 | 68 | 255 | 9.6 | 10.4 | 0.00 | 0.00 | 0.00 | 85 | 1014.2 |
| 20260904032347 | 68 | 180 | 3.5 | 3.5 | 0.00 | 0.00 | 0.00 | 85 | 1014.3 |
| 20260904031834 | 68 | 192 | 1.7 | 1.7 | 0.00 | 0.00 | 0.00 | 85 | 1014.4 |
| 20260904031322 | 68 | 136 | 3.5 | 4.3 | 0.00 | 0.00 | 0.00 | 86 | 1014.4 |
| 20260904030809 | 68 | 159 | 0.9 | 0.9 | 0.00 | 0.00 | 0.00 | 86 | 1014.4 |
| 20260904030257 | 68 | 243 | 4.3 | 4.3 | 0.00 | 0.00 | 0.00 | 85 | 1014.4 |
| 20260904025744 | 68 | 220 | 6.1 | 7.0 | 0.00 | 0.00 | 0.00 | 85 | 1014.6 |
| 20260904025231 | 68 | 94 | 3.5 | 3.5 | 0.00 | 0.00 | 0.00 | 86 | 1014.5 |
| 20260904024719 | 68 | 240 | 3.5 | 3.5 | 0.00 | 0.00 | 0.00 | 86 | 1014.6 |
| 20260904024206 | 68 | 195 | 3.5 | 4.3 | 0.00 | 0.00 | 0.00 | 86 | 1014.7 |
| 20260904023654 | 68 | 174 | 3.5 | 4.3 | 0.00 | 0.00 | 0.00 | 86 | 1014.9 |
| 20260904023141 | 68 | 217 | 3.5 | 3.5 | 0.00 | 0.00 | 0.00 | 86 | 1015.2 |
| 20260904022628 | 68 | 217 | 3.5 | 3.5 | 0.00 | 0.00 | 0.00 | 87 | 1015.1 |
| 20260904021615 | 68 | 72 | 2.6 | 2.6 | 0.00 | 0.00 | 0.00 | 86 | 1015.2 |
| 20260904021103 | 68 | 174 | 4.3 | 4.3 | 0.00 | 0.00 | 0.00 | 87 | 1015.3 |
| 20260904020550 | 68 | 169 | 1.7 | 1.7 | 0.00 | 0.00 | 0.00 | 87 | 1015.3 |
| 20260904020037 | 67 | 51 | 1.7 | 1.7 | 0.00 | 0.00 | 0.00 | 87 | 1015.4 |
| 20260904015525 | 67 | 203 | 3.5 | 3.5 | 0.00 | 0.00 | 0.00 | 87 | 1015.4 |
| 20260904015013 | 67 | 234 | 3.5 | 3.5 | 0.00 | 0.00 | 0.00 | 87 | 1015.4 |
| 20260904014500 | 68 | 170 | 0.9 | 0.9 | 0.00 | 0.00 | 0.00 | 87 | 1015.5 |
| 20260904013947 | 68 | 229 | 5.2 | 6.1 | 0.00 | 0.00 | 0.00 | 87 | 1015.5 |
| 20260904013435 | 67 | 232 | 3.5 | 4.3 | 0.00 | 0.00 | 0.00 | 86 | 1015.6 |
| 20260904012922 | 67 | 204 | 3.5 | 3.5 | 0.00 | 0.00 | 0.00 | 86 | 1015.4 |
| 20260904012410 | 68 | 246 | 4.3 | 4.3 | 0.00 | 0.00 | 0.00 | 85 | 1015.4 |
| 20260904011857 | 68 | 178 | 3.5 | 3.5 | 0.00 | 0.00 | 0.00 | 85 | 1015.8 |
| 20260904011344 | 68 | 141 | 3.5 | 3.5 | 0.00 | 0.00 | 0.00 | 85 | 1015.6 |
| 20260904010832 | 67 | 222 | 1.7 | 1.7 | 0.00 | 0.00 | 0.00 | 85 | 1015.5 |
| 20260904010319 | 67 | 210 | 2.6 | 2.6 | 0.00 | 0.00 | 0.00 | 85 | 1015.6 |
| 20260904005807 | 67 | 0 | 2.6 | 2.6 | 0.00 | 0.00 | 0.00 | 85 | 1015.6 |
| 20260904005254 | 67 | 231 | 3.5 | 3.5 | 0.00 | 0.00 | 0.00 | 85 | 1015.6 |
| 20260904004742 | 67 | 162 | 1.7 | 1.7 | 0.00 | 0.00 | 0.00 | 85 | 1015.8 |
| 20260904004229 | 68 | 211 | 0.9 | 0.9 | 0.00 | 0.00 | 0.00 | 84 | 1015.9 |
| 20260904003717 | 68 | 228 | 3.5 | 4.3 | 0.00 | 0.00 | 0.00 | 84 | 1015.9 |
| 20260904003204 | 68 | 78 | 4.3 | 5.2 | 0.00 | 0.00 | 0.00 | 84 | 1016.0 |
| 20260904002652 | 68 | 240 | 3.5 | 3.5 | 0.00 | 0.00 | 0.00 | 83 | 1016.1 |
| 20260904002139 | 68 | 243 | 1.7 | 1.7 | 0.00 | 0.00 | 0.00 | 82 | 1016.0 |
| 20260904001627 | 68 | 251 | 3.5 | 3.5 | 0.00 | 0.00 | 0.00 | 82 | 1016.2 |
| 20260904001114 | 68 | 233 | 3.5 | 3.5 | 0.00 | 0.00 | 0.00 | 81 | 1016.3 |
| 20260904000602 | 68 | 203 | 1.7 | 1.7 | 0.00 | 0.00 | 0.00 | 81 | 1016.3 |
| 20260904000049 | 68 | 238 | 1.7 | 1.7 | 0.00 | 0.00 | 0.00 | 80 | 1016.2 |
| 20260903235537 | 68 | 210 | 1.7 | 1.7 | 0.00 | 0.00 | 0.00 | 80 | 1016.4 |
| 20260903235024 | 68 | 189 | 0.9 | 0.9 | 0.00 | 0.00 | 0.00 | 79 | 1016.5 |
| 20260903234512 | 68 | 222 | 1.7 | 1.7 | 0.00 | 0.00 | 0.00 | 79 | 1016.6 |
| 20260903233959 | 68 | 228 | 0.0 | 0.0 | 0.00 | 0.00 | 0.00 | 79 | 1016.6 |
| 20260903233447 | 68 | 232 | 3.5 | 3.5 | 0.00 | 0.00 | 0.00 | 79 | 1016.7 |
| 20260903232934 | 68 | 223 | 0.0 | 0.0 | 0.00 | 0.00 | 0.00 | 79 | 1016.7 |
| 20260903232422 | 68 | 179 | 0.9 | 0.9 | 0.00 | 0.00 | 0.00 | 79 | 1016.7 |
| 20260903231909 | 67 | 240 | 3.5 | 3.5 | 0.00 | 0.00 | 0.00 | 79 | 1016.7 |